WetterOnline ( http://www.wetteronline.de )

Wetter aktuell PLZ Bereich 36404

Aktuelles Wetter: Bad Hersfeld (273m)

6-stündlich | Neueste Meldungen
Ortszeit Temperatur Wetter
So, 22.07. 8:00 16.6° C leichter Regen
So, 22.07. 2:00 17.3° C leichter Regen
Sa, 21.07. 20:00 23.8° C wolkig
Sa, 21.07. 14:00 24.4° C bedeckt
Sa, 21.07. 8:00 19.8° C wolkig
Sa, 21.07. 2:00 16.8° C wolkig
Fr, 20.07. 20:00 28.4° C wolkenlos
Fr, 20.07. 14:00 28.2° C bewölkt
Ortszeit Temperatur Wetter
So, 22.07. 8:10 16.7° C leichter Regen
So, 22.07. 8:00 16.6° C leichter Regen
So, 22.07. 7:50 16.6° C leichter Regen
So, 22.07. 7:40 16.5° C Sprühregen
So, 22.07. 7:30 16.3° C Sprühregen
So, 22.07. 7:20 16.3° C Sprühregen
So, 22.07. 7:00 16.2° C Sprühregen
So, 22.07. 6:30 16.3° C Sprühregen
So, 22.07. 6:00 16.5° C leichter Regen
So, 22.07. 5:30 16.6° C Sprühregen
So, 22.07. 5:00 16.8° C Sprühregen
Ortszeit Relative Feuchte Sichtweite
So, 22.07. 8:00 96% 4.4 km
So, 22.07. 2:00 92% 5.0 km
Sa, 21.07. 20:00 49% 19 km
Sa, 21.07. 14:00 44% 13 km
Sa, 21.07. 8:00 51% 13 km
Sa, 21.07. 2:00 62% 14 km
Fr, 20.07. 20:00 27% 15 km
Fr, 20.07. 14:00 24% 14 km
Ortszeit Relative Feuchte Sichtweite
So, 22.07. 8:10 96% -
So, 22.07. 8:00 96% 4.4 km
So, 22.07. 7:50 96% -
So, 22.07. 7:40 96% -
So, 22.07. 7:30 96% 3.7 km
So, 22.07. 7:20 96% -
So, 22.07. 7:00 96% 4.2 km
So, 22.07. 6:30 95% 4.7 km
So, 22.07. 6:00 95% 4.2 km
So, 22.07. 5:30 96% 4.1 km
So, 22.07. 5:00 96% 3.3 km
Ortszeit Niederschlagsmenge Niederschlagsart
So, 22.07. 8:00 1 l/m2 in 12 Std. Regen
So, 22.07. 2:00 0.7 l/m2 in 6 Std. Regen
Sa, 21.07. 20:00 0.1 l/m2 in 12 Std. Regen, Niederschlag
Sa, 21.07. 14:00 0.0 l/m2 in 6 Std. -
Sa, 21.07. 8:00 0.0 l/m2 in 12 Std. -
Sa, 21.07. 2:00 0.0 l/m2 in 6 Std. -
Fr, 20.07. 20:00 0.0 l/m2 in 12 Std. -
Fr, 20.07. 14:00 0.0 l/m2 in 6 Std. -
Ortszeit Niederschlagsmenge Niederschlagsart
So, 22.07. 8:10 keine Meldung -
So, 22.07. 8:00 0.1 l/m2 in 1 Std. Regen
So, 22.07. 7:50 keine Meldung -
So, 22.07. 7:40 keine Meldung -
So, 22.07. 7:30 0.1 l/m2 in 1 Std. -
So, 22.07. 7:20 keine Meldung -
So, 22.07. 7:00 0.2 l/m2 in 1 Std. Regen
So, 22.07. 6:30 0.1 l/m2 in 1 Std. -
So, 22.07. 6:00 0.1 l/m2 in 1 Std. Regen
So, 22.07. 5:30 0.1 l/m2 in 1 Std. -
So, 22.07. 5:00 0.1 l/m2 in 1 Std. Regen
Ortszeit Stärke Spitze Richtung
km/h Bft. km/h Grad Sektor
So, 22.07. 8:00 4 1 14 360° N
So, 22.07. 2:00 9 2 17 80° O
Sa, 21.07. 20:00 7 2 25 80° O
Sa, 21.07. 14:00 7 2 18 200° S
Sa, 21.07. 8:00 2 1 6 290° W
Sa, 21.07. 2:00 0 0 14 - -
Fr, 20.07. 20:00 6 1 22 50° NO
Fr, 20.07. 14:00 9 2 19 230° SW
Ortszeit Stärke Spitze Richtung
km/h Bft. km/h Grad Sektor
So, 22.07. 8:10 4 1 - 90° O
So, 22.07. 8:00 4 1 7 360° N
So, 22.07. 7:50 4 1 - - -
So, 22.07. 7:40 6 1 - 30° NO
So, 22.07. 7:30 4 1 7 150° SO
So, 22.07. 7:20 4 1 - 150° SO
So, 22.07. 7:00 4 1 4 160° S
So, 22.07. 6:30 0 0 4 - -
So, 22.07. 6:00 0 0 7 - -
So, 22.07. 5:30 6 1 7 20° N
So, 22.07. 5:00 2 1 6 30° NO
Ortszeit Untergrenze Bedeckung Gattung
total tief tief mittel hoch
So, 22.07. 8:00 30 m 8/8 8/8 - - -
So, 22.07. 2:00 30 m 8/8 8/8 - - -
Sa, 21.07. 20:00 2700 m 8/8 4/8 - - -
Sa, 21.07. 14:00 2400 m 8/8 8/8 - - -
Sa, 21.07. 8:00 4800 m 8/8 7/8 - - -
Sa, 21.07. 2:00 7800 m 8/8 0/8 - - -
Fr, 20.07. 20:00 - 0/8 0/8 - - -
Fr, 20.07. 14:00 6300 m 8/8 7/8 - - -
Ortszeit Bedeckungsgrad in Achtel und Wolkenuntergrenze
So, 22.07. 8:10 4(30m) 5(1500m) 8(2400m)
So, 22.07. 8:00 2(30m) 4(1500m) 8(2100m)
So, 22.07. 7:50 2(30m) 4(1500m) 8(2100m)
So, 22.07. 7:40 3(30m) 5(1500m) 7(2100m)
So, 22.07. 7:30 4(30m) 4(1410m) 8(1500m)
So, 22.07. 7:20 4(30m) 4(1410m) 8(1500m)
So, 22.07. 7:00 4(30m) 5(1320m) 8(1800m)
So, 22.07. 6:30 5(30m) 8(1500m)
So, 22.07. 6:00 2(60m) 8(1800m)
So, 22.07. 5:30 2(30m) 8(1500m)
So, 22.07. 5:00 7(1500m) 8(1800m) 8(1800m)
Ortszeit Luftdruck NN (hPa) Tendenz (hPa in 3 Std.)
So, 22.07. 8:00 1014 + 0,8
So, 22.07. 2:00 1013 + 0,8
Sa, 21.07. 20:00 1011 - 0,6
Sa, 21.07. 14:00 1011 + 0,9
Sa, 21.07. 8:00 1010 + 0,2
Sa, 21.07. 2:00 1011 - 0,3
Fr, 20.07. 20:00 1010 - 1,0
Fr, 20.07. 14:00 1012 - 1,2
Ortszeit Luftdruck NN (hPa) Tendenz (hPa in 3 Std.)
So, 22.07. 8:10 1014 keine Meldung
So, 22.07. 8:00 1014 + 0,8
So, 22.07. 7:50 1014 keine Meldung
So, 22.07. 7:40 1014 keine Meldung
So, 22.07. 7:30 1014 + 0,5
So, 22.07. 7:20 1014 keine Meldung
So, 22.07. 7:00 1014 + 0,3
So, 22.07. 6:30 1014 0,0
So, 22.07. 6:00 1013 - 0,2
So, 22.07. 5:30 1013 - 0,3
So, 22.07. 5:00 1013 - 0,2
Ortszeit Schneehöhe (cm)
So, 22.07. 8:00 -
So, 22.07. 2:00 -
Sa, 21.07. 20:00 -
Sa, 21.07. 14:00 -
Sa, 21.07. 8:00 -
Sa, 21.07. 2:00 -
Fr, 20.07. 20:00 -
Fr, 20.07. 14:00 -
Ortszeit Schneehöhe (cm)
So, 22.07. 8:10 -
So, 22.07. 8:00 -
So, 22.07. 7:50 -
So, 22.07. 7:40 -
So, 22.07. 7:30 -
So, 22.07. 7:20 -
So, 22.07. 7:00 -
So, 22.07. 6:30 -
So, 22.07. 6:00 -
So, 22.07. 5:30 -
So, 22.07. 5:00 -
Link zu dieser Seite / Seite empfehlen

Das Wetter in ...